Libertyville, IL

10:41 AM CST on February 09, 2016 (GMT -0600)
Chicago Executive

Weather History for KPWK - January, 2013

Change the Weather History Date:

Sunday, January 27, 2013

  Actual Average Record
Temperature  
Mean Temperature 30 °F 24 °F  
Max Temperature 36 °F 31 °F 60 °F (2002)
Min Temperature 23 °F 17 °F -7 °F (2014)
Degree Days  
Heating Degree Days 35 41  
Month to date heating degree days 1075 1119  
Since 1 July heating degree days 3298 3536  
Cooling Degree Days 0 0  
Month to date cooling degree days 0 0  
Year to date cooling degree days 0 0  
Moisture  
Dew Point 25 °F    
Average Humidity 81    
Maximum Humidity 97    
Minimum Humidity 64    
Precipitation  
Precipitation 0.44 in 0.05 in 0.44 in (2013)
Month to date precipitation 1.36 1.43  
Year to date precipitation 1.36 1.43  
Sea Level Pressure  
Sea Level Pressure 30.15 in    
Wind  
Wind Speed 11 mph (SSE)    
Max Wind Speed 26 mph    
Max Gust Speed 33 mph    
Visibility 4 miles    
Events Rain , Snow , Thunderstorm    
T = Trace of Precipitation, MM = Missing Value Source: NWS Daily Summary

Daily Weather History Graph

Daily Weather History Graph

Search for Another Location

Airport or City:

Trip Planner

Search our weather history database for the weather conditions in past years. The results will help you decide how hot, cold, wet, or windy it might be!

Date:

Astronomy

Jan. 27, 2013 Rise Set
Actual Time 7:09 AM CST 5:00 PM CST
Civil Twilight 6:39 AM CST 5:30 PM CST
Nautical Twilight 6:05 AM CST 6:03 PM CST
Astronomical Twilight 5:32 AM CST 6:36 PM CST
Moon 5:56 PM CST (1/27) 7:00 AM CST (1/27)
Length of Visible Light 10h 51m
Length of Day
9h 51m
Full, 100% of the Moon is Illuminated
Jan 27
Full
Feb 3
Last Quarter
Feb 10
New
Feb 17
First Quarter
Feb 25
Full

Hourly Weather History & Observations

Time (CST) Temp. Windchill Dew Point Humidity Pressure Visibility Wind Dir Wind Speed Gust Speed Precip Events Conditions
12:52 AM 26.1 °F 16.2 °F 17.1 °F 69% 30.39 in 10.0 mi South 10.4 mph - N/A   Overcast
1:52 AM 25.0 °F 17.1 °F 17.1 °F 72% 30.40 in 10.0 mi SSE 6.9 mph - N/A   Partly Cloudy
2:52 AM 24.1 °F 15.2 °F 17.1 °F 75% 30.40 in 9.0 mi South 8.1 mph - N/A   Scattered Clouds
3:52 AM 24.1 °F 14.4 °F 17.1 °F 75% 30.38 in 9.0 mi South 9.2 mph - N/A   Clear
4:52 AM 25.0 °F 17.1 °F 17.1 °F 72% 30.35 in 9.0 mi SSE 6.9 mph - N/A   Partly Cloudy
5:52 AM 25.0 °F 15.5 °F 17.1 °F 72% 30.36 in 9.0 mi SSE 9.2 mph - N/A   Clear
6:52 AM 26.1 °F 15.6 °F 17.1 °F 69% 30.35 in 9.0 mi SSE 11.5 mph - N/A   Mostly Cloudy
7:52 AM 26.1 °F 16.8 °F 17.1 °F 69% 30.36 in 7.0 mi South 9.2 mph - N/A   Mostly Cloudy
8:52 AM 27.0 °F 17.3 °F 18.0 °F 69% 30.35 in 7.0 mi South 10.4 mph - N/A   Overcast
9:52 AM 28.9 °F 19.8 °F 19.0 °F 67% 30.38 in 7.0 mi South 10.4 mph - N/A   Overcast
10:52 AM 30.0 °F 20.0 °F 19.9 °F 66% 30.34 in 7.0 mi SSE 12.7 mph - 0.00 in   Overcast
11:52 AM 30.9 °F 22.8 °F 19.9 °F 64% 30.28 in 6.0 mi SE 9.2 mph - N/A   Haze
12:52 PM 30.9 °F 22.8 °F 21.0 °F 67% 30.24 in 5.0 mi SSE 9.2 mph - 0.00 in   Overcast
1:52 PM 30.9 °F 24.3 °F 21.9 °F 69% 30.21 in 4.0 mi SE 6.9 mph - 0.00 in Snow Light Snow
1:57 PM 30.2 °F 22.6 °F 21.2 °F 69% 30.18 in 1.8 mi SE 8.1 mph - 0.00 in Snow Light Snow
2:12 PM 30.2 °F 22.6 °F 23.0 °F 75% 30.16 in 2.0 mi SE 8.1 mph - 0.00 in Snow Light Snow
2:20 PM 30.2 °F 22.6 °F 24.8 °F 80% 30.16 in 1.8 mi SSE 8.1 mph - 0.00 in Snow Light Snow
2:28 PM 30.2 °F 23.4 °F 24.8 °F 80% 30.17 in 2.5 mi Variable 6.9 mph - 0.00 in Rain Light Freezing Rain
2:35 PM 30.2 °F 21.3 °F 24.8 °F 80% 30.15 in 3.0 mi SE 10.4 mph - 0.00 in Rain Light Freezing Rain
2:52 PM 30.0 °F 22.4 °F 25.0 °F 82% 30.19 in 3.0 mi SE 8.1 mph - 0.00 in Rain Light Freezing Rain
3:00 PM 30.2 °F 21.9 °F 24.8 °F 80% 30.16 in 2.5 mi SSE 9.2 mph - 0.00 in Rain Light Freezing Rain
3:22 PM 30.2 °F 20.8 °F 26.6 °F 86% 30.10 in 2.5 mi SE 11.5 mph 20.7 mph 0.00 in Rain Light Freezing Rain
3:32 PM 30.2 °F 19.3 °F 26.6 °F 86% 30.11 in 2.5 mi SSE 15.0 mph - N/A Rain Light Freezing Rain
3:52 PM 30.9 °F 21.2 °F 26.1 °F 82% 30.13 in 2.5 mi SE 12.7 mph - N/A Rain Light Freezing Rain
4:24 PM 30.2 °F 19.3 °F 26.6 °F 86% 30.11 in 1.8 mi SSE 15.0 mph 20.7 mph N/A Rain Light Freezing Rain
4:48 PM 30.2 °F 16.8 °F 28.4 °F 93% 30.01 in 2.0 mi SSE 23.0 mph 33.4 mph N/A Rain Light Freezing Rain
4:52 PM 30.9 °F 19.4 °F 28.0 °F 89% 30.05 in 2.0 mi SSE 17.3 mph 33.4 mph N/A Rain Light Freezing Rain
5:03 PM 30.2 °F 19.8 °F 28.4 °F 93% 30.04 in 3.0 mi SSE 13.8 mph 28.8 mph 0.00 in Rain Light Freezing Rain
5:08 PM 32.0 °F 24.2 °F 28.4 °F 87% 30.06 in 4.0 mi SSE 9.2 mph 21.9 mph 0.00 in Rain Light Freezing Rain
5:21 PM 32.0 °F 21.6 °F 28.4 °F 87% 30.05 in 5.0 mi SSE 15.0 mph 21.9 mph 0.00 in   Overcast
5:52 PM 32.0 °F 25.6 °F 28.9 °F 88% 30.07 in 5.0 mi South 6.9 mph - 0.00 in   Overcast
6:04 PM 32.0 °F 20.1 °F 28.4 °F 87% 30.01 in 4.0 mi SSE 19.6 mph 26.5 mph 0.00 in Rain , Thunderstorm Light Freezing Rain
6:23 PM 32.0 °F 22.5 °F 28.4 °F 87% 30.03 in 5.0 mi SSE 12.7 mph - 0.00 in Rain Light Freezing Rain
6:33 PM 32.0 °F 23.0 °F 30.2 °F 93% 30.03 in 3.0 mi South 11.5 mph 19.6 mph 0.00 in Rain , Thunderstorm Light Freezing Rain
6:48 PM 33.8 °F 24.8 °F 30.2 °F 87% 30.02 in 4.0 mi South 12.7 mph 17.3 mph 0.00 in Rain Light Freezing Rain
6:52 PM 33.1 °F 22.6 °F 30.0 °F 89% 30.02 in 4.0 mi SSE 16.1 mph 23.0 mph 0.00 in Rain Light Freezing Rain
7:23 PM 33.8 °F 25.3 °F 30.2 °F 87% 30.00 in 2.5 mi South 11.5 mph 27.6 mph 0.00 in Rain Light Freezing Rain
7:32 PM 33.8 °F 25.3 °F 30.2 °F 87% 29.99 in 3.0 mi South 11.5 mph 18.4 mph 0.00 in Rain Light Freezing Rain
7:52 PM 33.1 °F 24.4 °F 30.9 °F 92% 30.01 in 5.0 mi South 11.5 mph - 0.01 in   Overcast
8:17 PM 33.8 °F 24.3 °F 30.2 °F 87% 29.97 in 1.8 mi South 13.8 mph 20.7 mph 0.01 in Snow Light Snow
8:32 PM 33.8 °F 24.3 °F 32.0 °F 93% 29.97 in 3.0 mi South 13.8 mph - 0.03 in Rain Light Rain
8:52 PM 34.0 °F 24.2 °F 32.0 °F 92% 29.99 in 5.0 mi South 15.0 mph - 0.03 in Rain Light Rain
10:52 PM 35.1 °F 25.5 °F 33.1 °F 92% 29.95 in 4.0 mi South 15.0 mph 23.0 mph 0.20 in   Overcast
11:44 PM 35.6 °F 28.0 °F 33.8 °F 93% 29.92 in 1.8 mi South 10.4 mph - 0.02 in   Overcast
11:52 PM 36.0 °F 28.5 °F 35.1 °F 97% 29.94 in 1.2 mi South 10.4 mph - 0.02 in Snow Light Snow